CST,Max TemperatureF,Mean TemperatureF,Min TemperatureF,Max Dew PointF,MeanDew PointF,Min DewpointF,Max Humidity, Mean Humidity, Min Humidity, Max Sea Level PressureIn, Mean Sea Level PressureIn, Min Sea Level PressureIn, Max VisibilityMiles, Mean VisibilityMiles, Min VisibilityMiles, Max Wind SpeedMPH, Mean Wind SpeedMPH, Max Gust SpeedMPH,PrecipitationIn, CloudCover, Events, WindDirDegrees
2013-2-1,26,13,0,15,3,-7,72,61,56,30.57,30.43,30.22,,,,13,6,17,0.00,,,205
2013-2-2,33,30,26,26,21,16,89,70,61,30.25,30.18,30.11,,,,9,6,,0.01,,,284
2013-2-3,39,33,27,26,19,14,82,59,41,30.30,30.15,29.93,,,,17,8,24,0.00,,,252
2013-2-4,39,30,19,27,22,16,85,71,60,30.04,29.96,29.82,,,,10,5,23,0.00,,,355
2013-2-5,53,36,19,32,25,16,85,70,41,30.17,30.03,29.96,,,,14,4,23,0.00,,,266
2013-2-6,57,42,28,35,32,25,85,53,40,30.17,30.03,29.94,,,,15,7,21,0.00,,,143
2013-2-7,51,42,32,43,37,27,93,82,54,30.22,30.01,29.91,,,,14,8,24,0.45,,,320
2013-2-8,33,32,30,27,25,24,82,79,72,30.42,30.36,30.24,,,,12,6,17,0.00,,,55
2013-2-9,44,37,30,34,29,25,85,74,60,30.32,30.13,29.86,,,,14,9,21,0.03,,,138
2013-2-10,57,47,37,47,34,22,93,68,43,29.85,29.62,29.42,,,,23,13,45,0.17,,,200
2013-2-11,46,37,28,25,23,21,81,59,40,30.21,30.09,29.86,,,,15,10,28,0.00,,,291
2013-2-12,42,30,19,28,23,18,92,76,53,30.23,30.12,29.99,,,,8,1,,0.00,,,186
2013-2-13,54,40,25,29,24,21,88,61,30,29.97,29.88,29.81,,,,10,3,17,0.00,,,227
2013-2-14,50,43,34,30,27,24,70,55,41,30.18,30.00,29.82,,,,14,7,24,0.00,,,304
2013-2-15,34,26,19,19,13,9,81,56,35,30.41,30.35,30.21,,,,13,8,23,0.00,,,320
2013-2-16,37,24,12,21,15,8,88,62,37,30.38,30.28,30.17,,,,9,3,,0.00,,,224
2013-2-17,53,40,28,29,24,20,72,53,37,30.14,29.97,29.74,,,,15,8,24,0.00,,,138
2013-2-18,55,40,25,47,29,14,86,64,52,30.05,29.74,29.58,,,,21,10,34,0.15,,,259
2013-2-19,28,22,16,13,7,3,68,54,35,30.43,30.28,30.08,,,,17,13,26,0.00,,,306
2013-2-20,24,17,10,11,6,2,70,60,48,30.50,30.42,30.32,,,,9,5,,0.00,,,57
2013-2-21,25,22,19,22,17,11,91,80,68,30.35,30.07,29.84,,,,17,9,31,0.91,,,79
2013-2-22,30,21,12,22,17,9,91,76,56,30.13,30.00,29.83,,,,12,4,22,0.01,,,277
2013-2-23,30,16,1,17,11,-2,100,75,58,30.12,30.08,30.04,,,,9,2,,0.00,,,179
2013-2-24,39,24,8,23,17,5,88,67,48,30.14,30.09,30.04,,,,7,3,,0.00,,,88
2013-2-25,39,34,28,31,25,21,89,69,58,30.08,29.98,29.79,,,,14,6,22,0.03,,,30
2013-2-26,34,33,32,31,29,28,96,86,79,29.84,29.69,29.60,,,,21,13,36,1.17,,,359
2013-2-27,32,31,30,29,26,23,89,80,69,30.03,29.93,29.83,,,,13,9,24,0.26,,,310
2013-2-28,35,31,27,24,22,20,78,71,64,30.23,30.16,30.04,,,,13,9,24,0.00,,,320